カタログに戻る

STARLINK-31319

運用中通信VLEO
NORAD 59457·PAYLOAD·🇺🇸 United States

打ち上げ Apr 10, 2024 から Cape Canaveral Space Force Station

Loading…

次のパス (今後24時間)

TLE

最新Source: CelesTrak SupGP

元期: Sep 14, 2026, 21:30 UTC

1 59457C 24068C   26257.89631944  .00060152  00000+0  21770-2 0  2575
2 59457  43.0042  42.4220 0001514 284.6018 325.8186 15.27573948    14

AllMySatでSTARLINK-31319をリアルタイム追跡

Download on the App Store